Spokane Fairchild, WA

5:28 PM PDT on June 28, 2017 (GMT -0700)
Fairchild Air Force Base

Weather History for KSKA - December, 2011

Change the Weather History Date:

Thursday, December 29, 2011

  Actual Average Record
Temperature  
Mean Temperature 38 °F -  
Max Temperature 44 °F 31 °F 48 °F (1998)
Min Temperature 32 °F 21 °F 11 °F (2014)
Degree Days  
Heating Degree Days 27    
Moisture  
Dew Point 37 °F    
Average Humidity 99    
Maximum Humidity 100    
Minimum Humidity 91    
Precipitation  
Precipitation 0.15 in - - ()
Sea Level Pressure  
Sea Level Pressure 29.86 in    
Wind  
Wind Speed 16 mph (South)    
Max Wind Speed 25 mph    
Max Gust Speed 33 mph    
Visibility 9 miles    
Events Rain , Snow    
Averages and records for this station are not official NWS values.
T = Trace of Precipitation, MM = Missing Value Source: NWS Daily Summary

Daily Weather History Graph

Daily Weather History Graph

Search for Another Location

Airport or City:

Trip Planner

Search our weather history database for the weather conditions in past years. The results will help you decide how hot, cold, wet, or windy it might be!

Date:

Astronomy

Dec. 29, 2011 Rise Set
Actual Time 7:38 AM PST 4:06 PM PST
Civil Twilight 7:02 AM PST 4:42 PM PST
Nautical Twilight 6:23 AM PST 5:21 PM PST
Astronomical Twilight 5:45 AM PST 5:59 PM PST
Moon 10:10 AM PST 10:13 PM PST
Length of Visible Light 9h 39m
Length of Day
8h 28m
Waxing Crescent, 27% of the Moon is Illuminated
Dec 29
Waxing Crescent
Dec 31
First Quarter
Jan 8
Full
Jan 16
Last Quarter
Jan 22
New

Hourly Weather History & Observations

Time (PST) Temp. Windchill Dew Point Humidity Pressure Visibility Wind Dir Wind Speed Gust Speed Precip Events Conditions
12:15 AM 44.6 °F 35.9 °F 44.6 °F 100% 29.65 in 10.0 mi SW 23.0 mph 33.4 mph N/A Rain Light Rain
12:19 AM 44.6 °F 35.9 °F 44.6 °F 100% 29.65 in 10.0 mi SW 23.0 mph 29.9 mph N/A   Clear
12:55 AM 43.7 °F 34.3 °F 43.7 °F 100% 29.65 in 10.0 mi SW 25.3 mph 32.2 mph 0.00 in   Mostly Cloudy
1:55 AM 40.8 °F 32.0 °F 40.8 °F 100% 29.73 in 10.0 mi SW 18.4 mph - N/A   Clear
2:55 AM 41.0 °F 31.1 °F 40.5 °F 98% 29.76 in 10.0 mi SW 23.0 mph 28.8 mph N/A   Clear
3:55 AM 38.7 °F 28.0 °F 38.7 °F 100% 29.77 in 10.0 mi SW 23.0 mph 29.9 mph N/A   Clear
4:26 AM 37.4 °F 27.2 °F 37.4 °F 100% 29.76 in 10.0 mi SW 19.6 mph 26.5 mph N/A Snow Light Snow
4:55 AM 37.2 °F 26.4 °F 37.0 °F 99% 29.79 in 10.0 mi WSW 21.9 mph 26.5 mph 0.00 in Snow Light Snow
5:55 AM 36.0 °F 24.7 °F 36.0 °F 100% 29.84 in 10.0 mi SW 21.9 mph 27.6 mph 0.00 in Snow Light Snow
6:26 AM 35.6 °F 24.5 °F 35.6 °F 100% 29.86 in 10.0 mi SW 20.7 mph - N/A   Clear
6:27 AM 35.6 °F 24.5 °F 35.6 °F 100% 29.86 in 10.0 mi SW 20.7 mph - N/A Snow Light Snow
6:55 AM 35.8 °F 24.5 °F 35.6 °F 99% 29.87 in 10.0 mi SW 21.9 mph 28.8 mph 0.00 in Snow Light Snow
7:03 AM 35.6 °F 25.2 °F 35.6 °F 100% 29.87 in 10.0 mi SW 18.4 mph 26.5 mph N/A   Clear
7:05 AM 35.6 °F 25.2 °F 35.6 °F 100% 29.88 in 10.0 mi SW 18.4 mph - N/A Snow Light Snow
7:06 AM 35.6 °F 25.5 °F 35.6 °F 100% 29.88 in 10.0 mi SW 17.3 mph - N/A   Clear
7:55 AM 34.2 °F 25.2 °F 34.2 °F 100% 29.92 in 10.0 mi SW 12.7 mph - 0.00 in   Clear
8:55 AM 36.0 °F 30.3 °F 35.8 °F 99% 29.97 in 10.0 mi SW 6.9 mph - N/A   Clear
9:55 AM 36.3 °F 27.1 °F 36.3 °F 100% 29.99 in 10.0 mi SSW 15.0 mph - N/A   Clear
9:58 AM 35.6 °F 26.6 °F 35.6 °F 100% 29.99 in 10.0 mi SSW 13.8 mph - N/A   Clear
10:22 AM 37.4 °F 28.2 °F 37.4 °F 100% 30.00 in 10.0 mi SSW 16.1 mph - N/A   Clear
10:38 AM 37.4 °F 27.8 °F 37.4 °F 100% 30.00 in 10.0 mi SSW 17.3 mph - N/A   Clear
10:48 AM 39.2 °F 31.6 °F 37.4 °F 93% 29.99 in 10.0 mi SSW 12.7 mph - N/A   Clear
10:55 AM 39.4 °F 30.7 °F 36.9 °F 91% 29.99 in 10.0 mi SSW 16.1 mph - 0.00 in   Clear
10:56 AM 39.2 °F 30.5 °F 37.4 °F 93% 29.99 in 10.0 mi SSW 16.1 mph - N/A   Clear
11:20 AM 39.2 °F 30.2 °F 37.4 °F 93% 29.99 in 10.0 mi SSW 17.3 mph 26.5 mph N/A   Clear
11:55 AM 38.8 °F 30.4 °F 38.7 °F 99% 29.99 in 10.0 mi SSW 15.0 mph - 0.00 in   Clear
12:20 PM 39.2 °F 30.8 °F 39.2 °F 100% 29.98 in 10.0 mi South 15.0 mph - N/A   Clear
12:55 PM 39.4 °F 31.1 °F 39.4 °F 100% 29.98 in 10.0 mi SSW 15.0 mph - 0.00 in   Partly Cloudy
1:06 PM 39.2 °F 31.2 °F 39.2 °F 100% 29.99 in 10.0 mi South 13.8 mph - N/A   Partly Cloudy
1:55 PM 39.6 °F 33.0 °F 39.2 °F 99% 29.99 in 10.0 mi South 10.4 mph 18.4 mph 0.00 in   Clear
2:29 PM 39.2 °F 34.2 °F 39.2 °F 100% 29.98 in 10.0 mi SSE 6.9 mph - N/A   Clear
2:47 PM 39.2 °F 31.6 °F 39.2 °F 100% 29.99 in 10.0 mi South 12.7 mph 19.6 mph N/A   Clear
2:55 PM 39.4 °F 32.3 °F 39.4 °F 100% 29.98 in 10.0 mi South 11.5 mph - 0.00 in   Clear
3:55 PM 38.1 °F 32.9 °F 38.1 °F 100% 29.97 in 10.0 mi South 6.9 mph - N/A   Partly Cloudy
4:07 PM 37.4 °F 32.8 °F 37.4 °F 100% 29.96 in 10.0 mi SE 5.8 mph - N/A   Scattered Clouds
4:17 PM 37.4 °F 32.1 °F 37.4 °F 100% 29.96 in 10.0 mi SSE 6.9 mph - N/A   Mostly Cloudy
4:55 PM 37.4 °F 33.8 °F 37.4 °F 100% 29.95 in 10.0 mi SE 4.6 mph - 0.00 in   Overcast
5:55 PM 36.0 °F 33.3 °F 36.0 °F 100% 29.92 in 10.0 mi SSE 3.5 mph - N/A   Partly Cloudy
5:56 PM 35.6 °F 32.8 °F 35.6 °F 100% 29.92 in 10.0 mi South 3.5 mph - N/A Rain Light Rain
6:38 PM 37.4 °F 32.1 °F 37.4 °F 100% 29.90 in 9.0 mi SSW 6.9 mph - N/A Rain Light Rain
6:55 PM 36.1 °F 32.3 °F 36.1 °F 100% 29.89 in 9.0 mi SSE 4.6 mph - 0.00 in Rain Light Rain
7:34 PM 35.6 °F 30.7 °F 35.6 °F 100% 29.86 in 10.0 mi South 5.8 mph - N/A Rain Light Rain
7:55 PM 35.4 °F 31.5 °F 35.4 °F 100% 29.83 in 10.0 mi South 4.6 mph - 0.02 in Rain Light Rain
8:00 PM 35.6 °F 31.7 °F 35.6 °F 100% 29.83 in 9.0 mi SSE 4.6 mph - N/A Rain Light Rain
8:02 PM 35.6 °F 31.7 °F 35.6 °F 100% 29.83 in 9.0 mi SSE 4.6 mph - N/A Rain Light Rain
8:16 PM 35.6 °F 31.7 °F 35.6 °F 100% 29.83 in 10.0 mi SE 4.6 mph - N/A Rain Light Rain
8:28 PM 35.6 °F 31.7 °F 35.6 °F 100% 29.82 in 10.0 mi ESE 4.6 mph - N/A Rain Light Rain
8:41 PM 35.6 °F 30.7 °F 35.6 °F 100% 29.80 in 8.0 mi ESE 5.8 mph - N/A Rain Light Rain
8:45 PM 35.6 °F 30.7 °F 35.6 °F 100% 29.80 in 8.0 mi ESE 5.8 mph - N/A Rain Light Rain
8:55 PM 35.6 °F 28.0 °F 35.6 °F 100% 29.80 in 7.0 mi SE 10.4 mph - 0.02 in Rain Light Rain
9:08 PM 35.6 °F 28.6 °F 35.6 °F 100% 29.78 in 8.0 mi SE 9.2 mph - N/A Rain Light Rain
9:26 PM 33.8 °F 26.4 °F 33.8 °F 100% 29.77 in 9.0 mi ESE 9.2 mph - N/A Rain Light Rain
9:55 PM 33.3 °F 27.1 °F 33.1 °F 99% 29.75 in 5.0 mi ESE 6.9 mph - 0.04 in Snow Light Snow
9:57 PM 33.8 °F 27.0 °F 33.8 °F 100% 29.75 in 4.0 mi ESE 8.1 mph - N/A Snow Light Snow
10:26 PM 32.0 °F 26.4 °F 32.0 °F 100% 29.72 in 3.0 mi East 5.8 mph - N/A Snow Light Snow
10:40 PM 32.0 °F 25.6 °F 32.0 °F 100% 29.71 in 3.0 mi East 6.9 mph - N/A Snow Light Snow
10:46 PM 32.0 °F 26.4 °F 32.0 °F 100% 29.71 in 5.0 mi ENE 5.8 mph - N/A Rain Light Freezing Rain
10:55 PM 32.5 °F 27.1 °F 32.5 °F 100% 29.70 in 9.0 mi East 5.8 mph - 0.02 in Rain , Snow Light Rain
11:03 PM 32.0 °F 27.5 °F 32.0 °F 100% 29.70 in 8.0 mi East 4.6 mph - N/A Rain Light Rain
11:06 PM 32.0 °F 27.5 °F 32.0 °F 100% 29.70 in 7.0 mi East 4.6 mph - N/A Rain Light Rain
11:28 PM 33.8 °F 28.6 °F 33.8 °F 100% 29.68 in 6.0 mi East 5.8 mph - N/A Rain Light Rain
11:55 PM 35.1 °F 27.4 °F 35.1 °F 100% 29.66 in 7.0 mi SSE 10.4 mph - 0.05 in Rain Light Rain